Location: Bucksport
(44.6167°N, 68.8000°W)
Time: 02:26:06
(UTC-05:00)

N. Korean satellite - Visible Passes

Search period start: 10 December 2019 00:00
Search period end: 20 December 2019 00:00
Orbit: 456 x 506 km, 97.2° (Epoch: 09 December)

Date Brightness Start Highest point End Pass type
(mag) Time Alt. Az. Time Alt. Az. Time Alt. Az.
10 Dec 9.1 04:46:06 10° NE 04:48:54 22° E 04:51:40 10° SSE visible
10 Dec 7.6 06:19:22 10° NNW 06:22:15 24° WNW 06:25:05 10° WSW visible
10 Dec 7.7 16:55:29 10° S 16:59:05 50° W 17:02:42 10° NNW visible
11 Dec 10.0 04:22:12 10° ENE 04:23:15 11° E 04:24:18 10° ESE visible
11 Dec 6.7 05:53:32 10° N 05:56:57 47° WNW 06:00:17 10° SSW visible
11 Dec 6.6 16:29:57 10° SSE 16:33:39 77° ENE 16:37:20 10° N visible
12 Dec 6.6 05:28:00 10° NNE 05:31:33 78° ESE 05:35:00 10° S visible
12 Dec 9.8 17:39:28 10° SW 17:41:49 16° W 17:44:09 10° NW visible
13 Dec 8.2 05:02:47 10° NNE 05:06:03 35° E 05:09:15 10° SSE visible
13 Dec 8.7 17:12:55 10° SSW 17:16:13 30° W 17:19:31 10° NNW visible
14 Dec 9.5 04:38:02 10° NE 04:40:28 17° E 04:42:51 10° SE visible
14 Dec 7.3 06:10:51 10° N 06:13:55 29° WNW 06:16:56 10° SW visible
14 Dec 7.2 16:47:03 10° S 16:50:43 64° W 16:54:22 10° NNW visible
15 Dec 6.4 05:45:06 10° N 05:48:35 60° WNW 05:51:58 10° SSW visible
15 Dec 6.6 16:21:40 10° SSE 16:25:18 60° ENE 16:28:55 10° N visible
16 Dec 7.0 05:19:40 10° NNE 05:23:08 60° E 05:26:32 10° S visible
16 Dec 9.6 17:30:40 10° SW 17:33:23 19° W 17:36:06 10° NW visible
17 Dec 8.6 04:54:34 10° NE 04:57:36 27° E 05:00:36 10° SSE visible
17 Dec 7.9 06:28:21 10° NNW 06:30:49 18° WNW 06:33:16 10° WSW visible
17 Dec 8.3 17:04:22 10° SSW 17:07:49 38° W 17:11:15 10° NNW visible
18 Dec 9.8 04:30:05 10° ENE 04:31:58 14° E 04:33:51 10° SE visible
18 Dec 7.0 06:02:19 10° N 06:05:32 35° WNW 06:08:42 10° SW visible
18 Dec 6.7 16:38:39 10° S 16:42:20 81° WSW 16:45:59 10° NNW visible
19 Dec 6.3 05:36:41 10° N 05:40:10 79° WNW 05:43:35 10° SSW visible
19 Dec 10.0 17:49:02 10° WSW 17:50:34 12° W 17:52:07 10° WNW visible
